Weather reports worldwide

Advertisment
Plymouth, United Kingdom (3827): temperature & dewpoint: 07.12.2018 09:00:00 - 13.12.2018 09:00:00 (GMT)Plymouth, United Kingdom (3827): wind speed & gusts: 07.12.2018 09:00:00 - 13.12.2018 09:00:00 (GMT)Plymouth, United Kingdom (3827): wind direction: 07.12.2018 09:00:00 - 13.12.2018 09:00:00 (GMT)Plymouth, United Kingdom (3827): reduced air pressure: 07.12.2018 09:00:00 - 13.12.2018 09:00:00 (GMT)Plymouth, United Kingdom (3827): visibility: 07.12.2018 09:00:00 - 13.12.2018 09:00:00 (GMT)Plymouth, United Kingdom (3827): precipitation: 07.12.2018 09:00:00 - 13.12.2018 09:00:00 (GMT)
Date & Time tt [°C] td [°C] ff [km/h] ff [kn] fx [km/h] fx [kn] dd ppp [hPa] vv [km] rr [mm]
13.12.2018 09:00:00 6,0 1,8 29 16 50 27 ESE 1009,4 15 0,0
13.12.2018 08:00:00 5,9 1,9 26 14 50 27 E 1008,5 24 0,0
13.12.2018 07:00:00 6,0 2,0 28 15 50 27 E 1008,2 25 0,0
13.12.2018 06:00:00 6,1 2,4 28 15 50 27 ESE 1008,2 15 0,0
13.12.2018 05:00:00 6,1 2,8 28 15 57 31 ESE 1008,2 20 0,0
13.12.2018 04:00:00 6,7 2,8 28 15 54 29 ESE 1008,6 23 0,0
13.12.2018 03:00:00 6,7 3,0 31 17 55 30 ESE 1008,5 19 0,0
13.12.2018 02:00:00 7,2 3,5 29 16 57 31 ESE 1008,7 20 0,0
13.12.2018 01:00:00 7,2 3,4 29 16 55 30 ESE 1009,3 14 0,0
13.12.2018 00:00:00 7,4 3,7 31 17 55 30 ESE 1010,2 14 0,0
12.12.2018 23:00:00 7,6 4,2 29 16 52 28 ESE 1010,6 16 0,0
12.12.2018 22:00:00 8,0 5,3 28 15 61 33 ESE 1011,4 12 0,0
12.12.2018 21:00:00 8,2 5,2 28 15 46 25 SE 1012,2 13 0,0
12.12.2018 20:00:00 8,4 5,4 26 14 48 26 SE 1013,0 13 0,0
12.12.2018 19:00:00 8,3 4,8 28 15 48 26 ESE 1013,4 27 0,0
12.12.2018 18:00:00 8,3 5,8 24 13 50 27 SE 1013,8 22 0,0
12.12.2018 17:00:00 8,5 6,4 29 16 48 26 ESE 1014,2 13 0,0
12.12.2018 16:00:00 8,6 7,0 26 14 46 25 SE 1014,9 17 0,0
12.12.2018 15:00:00 8,9 7,6 29 16 46 25 ESE 1015,1 11 0,0
12.12.2018 14:00:00 9,1 8,1 24 13 - - SE 1015,8 5 0,2
12.12.2018 13:00:00 9,9 8,9 18 10 - - SE 1016,4 16 0,0
12.12.2018 12:00:00 10,1 9,3 16 9 - - SE 1016,8 11 0,0
12.12.2018 11:00:00 9,5 9,2 13 7 - - SE 1017,6 4,5 2,6
12.12.2018 10:00:00 9,6 9,2 13 7 - - SE 1017,9 7 0,0
12.12.2018 09:00:00 9,3 9,1 11 6 - - SSE 1017,9 8 0,0
12.12.2018 08:00:00 9,2 8,9 8 4 - - S 1017,5 10 0,2
12.12.2018 07:00:00 9,1 8,8 13 7 - - SSE 1017,4 6 0,2
12.12.2018 06:00:00 9,3 8,9 15 8 - - SSE 1017,6 3,5 2,0
12.12.2018 05:00:00 9,4 9,0 13 7 - - SSE 1017,8 2,5 0,6
12.12.2018 04:00:00 9,5 9,0 18 10 - - SSE 1017,7 3,1 0,6
12.12.2018 03:00:00 9,4 8,7 16 9 - - SSE 1017,8 4,7 0,4
12.12.2018 02:00:00 9,2 8,6 15 8 - - SE 1017,5 4,5 1,2
12.12.2018 01:00:00 9,1 8,3 16 9 - - SE 1017,7 4,8 1,0
12.12.2018 00:00:00 9,1 8,2 18 10 - - SE 1018,2 4,9 1,2
11.12.2018 23:00:00 9,8 8,0 18 10 - - SSE 1018,1 7 0,0
11.12.2018 22:00:00 10,0 7,7 18 10 - - SE 1018,3 15 0,0
11.12.2018 21:00:00 9,8 7,4 18 10 - - SSE 1018,7 13 0,0
11.12.2018 20:00:00 9,8 6,9 16 9 - - SE 1018,7 13 0,0
11.12.2018 19:00:00 9,5 6,4 16 9 - - SSE 1019,1 19 0,0
11.12.2018 18:00:00 9,4 6,0 16 9 - - SSE 1019,6 14 0,0
11.12.2018 17:00:00 9,6 6,1 21 11 - - SSE 1019,9 18 0,0
11.12.2018 16:00:00 9,7 6,1 21 11 - - SSE 1020,3 19 0,0
11.12.2018 15:00:00 9,9 6,2 22 12 - - SSE 1020,4 16 0,0
11.12.2018 14:00:00 10,0 5,9 22 12 - - SSE 1021,1 15 0,0
11.12.2018 13:00:00 10,4 6,8 18 10 - - S 1021,8 19 0,0
11.12.2018 12:00:00 10,5 6,9 21 11 - - SSE 1022,4 12 0,0
11.12.2018 11:00:00 10,4 7,1 18 10 - - SSE 1023,0 13 0,0
11.12.2018 10:00:00 10,2 7,4 16 9 - - SSE 1023,1 15 0,0
11.12.2018 09:00:00 9,4 8,4 16 9 - - SE 1023,7 4,1 0,0
11.12.2018 08:00:00 9,7 8,4 13 7 - - SSE 1023,7 9 0,0
11.12.2018 07:00:00 9,3 8,6 16 9 - - SSE 1023,9 5 0,2
11.12.2018 06:00:00 8,9 8,3 11 6 - - ESE 1024,0 4,5 0,0
11.12.2018 05:00:00 8,9 8,2 13 7 - - SE 1024,5 11 0,0
11.12.2018 04:00:00 8,9 8,2 5 3 - - ESE 1025,1 11 0,0
11.12.2018 03:00:00 9,0 8,0 4 2 - - E 1025,7 9 0,0
11.12.2018 02:00:00 9,4 8,3 11 6 - - S 1026,3 12 0,0
11.12.2018 01:00:00 9,6 8,8 11 6 - - S 1027,1 10 0,0
11.12.2018 00:00:00 9,7 8,8 15 8 - - S 1027,7 11 0,0
10.12.2018 23:00:00 9,5 8,2 11 6 - - S 1027,9 17 0,0
10.12.2018 22:00:00 8,8 7,5 4 2 - - E 1028,3 7 0,0
10.12.2018 21:00:00 9,3 8,0 11 6 - - S 1028,5 9 0,0
10.12.2018 20:00:00 9,0 8,1 5 3 - - SW 1028,7 7 0,2
10.12.2018 19:00:00 8,6 7,1 2 1 - - ESE 1028,9 9 0,0
10.12.2018 18:00:00 8,6 7,2 2 1 - - SSW 1028,9 9 0,0
10.12.2018 17:00:00 8,7 6,8 8 4 - - W 1029,2 9 0,0
10.12.2018 16:00:00 8,7 6,8 9 5 - - WSW 1029,4 10 0,0
10.12.2018 15:00:00 10,1 7,4 11 6 - - WSW 1029,6 8 0,0
10.12.2018 14:00:00 10,4 7,1 9 5 - - W 1030,0 12 0,0
10.12.2018 13:00:00 10,1 7,1 4 2 - - W 1029,9 14 0,0
10.12.2018 12:00:00 9,7 6,5 8 4 - - WNW 1030,4 18 0,0
10.12.2018 11:00:00 9,2 6,5 4 2 - - W 1030,6 18 0,0
10.12.2018 10:00:00 6,9 5,3 5 3 - - WNW 1030,7 11 0,0
10.12.2018 09:00:00 5,6 4,5 8 4 - - W 1030,2 16 0,0
10.12.2018 08:00:00 6,2 4,5 5 3 - - W 1030,1 13 0,0
10.12.2018 07:00:00 7,0 5,5 8 4 - - W 1029,9 20 0,0
10.12.2018 06:00:00 7,6 6,1 9 5 - - W 1029,8 14 0,0
10.12.2018 05:00:00 7,0 5,2 11 6 - - W 1029,5 17 0,0
10.12.2018 04:00:00 7,1 5,5 13 7 - - W 1029,1 15 0,0
10.12.2018 03:00:00 7,5 5,1 9 5 - - W 1029,1 10 0,0
10.12.2018 02:00:00 7,4 5,3 13 7 - - W 1028,7 27 0,0
10.12.2018 01:00:00 7,3 5,1 15 8 - - W 1028,4 12 0,0
10.12.2018 00:00:00 7,7 5,2 18 10 - - W 1028,0 18 0,0
09.12.2018 23:00:00 8,5 5,1 21 11 - - WNW 1027,3 15 0,0
09.12.2018 22:00:00 8,6 5,6 21 11 - - WNW 1026,8 12 0,0
09.12.2018 21:00:00 9,0 5,8 22 12 - - WNW 1026,2 12 0,0
09.12.2018 20:00:00 9,5 6,5 21 11 - - WNW 1025,9 20 0,0
09.12.2018 19:00:00 9,4 5,8 22 12 - - WNW 1025,0 11 0,0
09.12.2018 18:00:00 10,0 6,5 28 15 46 25 WNW 1023,8 15 0,0
09.12.2018 17:00:00 9,4 7,3 16 9 48 26 WNW 1023,0 11 0,2
09.12.2018 16:00:00 10,1 6,9 18 10 50 27 WNW 1022,1 10 0,0
09.12.2018 15:00:00 9,9 7,0 21 11 46 25 WNW 1021,1 15 0,0
09.12.2018 14:00:00 10,4 6,5 18 10 55 30 NW 1019,6 21 0,0
09.12.2018 13:00:00 10,8 5,0 37 20 72 39 NW 1018,5 17 0,0
09.12.2018 12:00:00 11,3 4,8 42 23 72 39 NW 1016,9 19 0,0
09.12.2018 11:00:00 11,1 6,3 42 23 63 34 NW 1015,7 17 0,0
09.12.2018 10:00:00 10,8 7,2 37 20 63 34 WNW 1014,2 15 0,0
09.12.2018 09:00:00 10,2 8,0 31 17 65 35 WNW 1012,8 10 0,2
09.12.2018 08:00:00 10,0 8,0 41 22 72 39 W 1011,5 8 0,0
09.12.2018 07:00:00 10,8 7,3 42 23 70 38 W 1010,3 9 0,0
09.12.2018 06:00:00 10,4 7,2 44 24 76 41 W 1009,4 8 0,0
09.12.2018 05:00:00 10,3 7,2 46 25 72 39 W 1008,8 7 0,2
09.12.2018 04:00:00 10,2 7,1 44 24 72 39 W 1008,3 8 0,0
09.12.2018 03:00:00 9,6 6,8 55 30 80 43 W 1008,0 7 0,0
09.12.2018 02:00:00 10,3 6,2 52 28 78 42 W 1007,6 8 0,0
09.12.2018 01:00:00 9,8 5,9 52 28 76 41 W 1007,5 7 0,0
09.12.2018 00:00:00 8,6 5,8 57 31 98 53 W 1007,4 5 0,2
08.12.2018 23:00:00 8,5 6,6 46 25 81 44 W 1007,2 8 0,6
08.12.2018 22:00:00 9,7 6,2 48 26 80 43 W 1007,0 7 0,2
08.12.2018 21:00:00 10,1 6,4 46 25 70 38 W 1006,5 9 0,0
08.12.2018 20:00:00 8,8 6,4 31 17 72 39 WNW 1006,3 12 0,6
08.12.2018 19:00:00 10,8 7,1 41 22 68 37 W 1006,2 7 0,0
08.12.2018 18:00:00 10,8 7,4 48 26 74 40 W 1005,9 7 0,0
08.12.2018 17:00:00 11,1 7,3 46 25 74 40 W 1005,9 7 0,0
08.12.2018 16:00:00 11,3 8,5 37 20 83 45 W 1005,9 7 0,0
08.12.2018 15:00:00 12,0 9,6 44 24 72 39 W 1005,8 8 0,0
08.12.2018 14:00:00 11,8 10,8 39 21 61 33 WSW 1006,5 9 0,2
08.12.2018 13:00:00 11,9 11,6 44 24 67 36 WSW 1006,9 5 0,2
08.12.2018 12:00:00 11,5 11,3 46 25 68 37 SW 1008,0 8 0,2
08.12.2018 11:00:00 11,1 10,9 39 21 55 30 WSW 1009,3 4,4 0,8
08.12.2018 10:00:00 10,7 10,3 34 18 54 29 WSW 1010,5 3,1 0,4
08.12.2018 09:00:00 10,4 9,1 37 20 54 29 WSW 1011,5 2,7 0,0
08.12.2018 08:00:00 10,0 8,4 28 15 57 31 W 1012,1 7 0,0
08.12.2018 07:00:00 10,1 7,5 35 19 55 30 W 1012,2 9 0,0
08.12.2018 06:00:00 10,0 6,3 42 23 61 33 W 1012,1 12 0,0
08.12.2018 05:00:00 9,8 6,7 39 21 57 31 W 1012,0 9 0,0
08.12.2018 04:00:00 9,5 6,4 41 22 55 30 W 1011,9 8 0,2
08.12.2018 03:00:00 9,6 7,3 39 21 63 34 WSW 1012,0 4,3 0,0
08.12.2018 02:00:00 9,3 7,4 37 20 63 34 W 1011,8 5 0,2
08.12.2018 01:00:00 8,5 6,6 37 20 89 48 W 1011,5 9 0,2
08.12.2018 00:00:00 8,3 6,8 44 24 65 35 W 1011,5 9 0,6
07.12.2018 23:00:00 8,7 6,7 41 22 68 37 W 1011,1 8 0,0
07.12.2018 22:00:00 8,4 7,2 37 20 70 38 WSW 1011,2 10 1,2
07.12.2018 21:00:00 8,0 6,9 37 20 55 30 W 1011,0 6 2,2
07.12.2018 20:00:00 8,5 5,7 31 17 61 33 WSW 1011,1 10 0,0
07.12.2018 19:00:00 7,9 5,2 34 18 52 28 W 1010,7 13 0,0
07.12.2018 18:00:00 7,7 4,8 35 19 55 30 W 1010,4 16 0,0
07.12.2018 17:00:00 8,1 4,2 42 23 70 38 W 1009,3 17 0,0
07.12.2018 16:00:00 8,5 4,5 42 23 65 35 W 1008,3 11 0,0
07.12.2018 15:00:00 8,3 4,1 44 24 72 39 W 1007,9 12 0,0
07.12.2018 14:00:00 8,7 4,4 28 15 46 25 W 1007,7 18 0,0
07.12.2018 13:00:00 7,0 5,2 21 11 74 40 WNW 1007,5 16 0,4
07.12.2018 12:00:00 9,4 5,6 37 20 52 28 W 1006,3 17 0,2
07.12.2018 11:00:00 8,0 4,9 34 18 74 40 WNW 1006,5 14 0,0
07.12.2018 10:00:00 8,9 5,8 35 19 52 28 W 1005,1 11 0,0
07.12.2018 09:00:00 9,2 6,7 34 18 50 27 W 1004,9 12 0,0

tt = temperature
td = dewpoint
ff = wind speed
fx = gusts
dd = wind direction
ppp = reduced air pressure
vv = visibility
rr = precipitation

Next stations